Hourly Data Report for October 24, 2015

All times are specified in Local Standard Time (LST). Add 1 hour to adjust for Daylight Saving Time where and when it is observed.

KUGAARUK CLIMATE
NUNAVUT

68°32'15.060" N
89°47'47.020" W
15.80 m
2303094
71407
NBB

Download Data

Hourly Data (October 2015)
Hourly Data Report for October 24, 2015
Temp Definition
°C
Dew Point Temp Definition
°C
Rel Hum Definition
%
Wind Dir Definition
10's deg

Wind Spd Definition
km/h
Visibility Definition
km
Stn Press Definition
kPa
Hmdx Definition


Wind Chill Definition


Weather Definition


TIME
00:00 -15.4 -17.4 85 32 31   100.46   -27 LegendNANA
01:00 -15.4 -17.3 86 32 33   100.48   -27 LegendNANA
02:00 -16.0 -18.1 84 31 24   100.50   -26 LegendNANA
03:00 -16.8 -19.0 84 30 27   100.45   -28 LegendNANA
04:00 -15.5 -17.7 83 31 25   100.50   -26 LegendNANA
05:00 -15.8 -18.1 82 31 30   100.46   -27 LegendNANA
06:00 -16.7 -19.3 80 30 25   100.43   -27 LegendNANA
07:00 -17.1 -19.8 79 30 22   100.41   -27 LegendNANA
08:00 -17.4 -20.5 77 29 20   100.35   -27 LegendNANA
09:00 -17.0 -20.2 76 29 17   100.30   -26 LegendNANA
10:00 -16.6 -19.8 76 30 17   100.23   -25 LegendNANA
11:00 -15.8 -19.2 75 30 19   100.16   -25 LegendNANA
12:00 -15.2 -19.1 72 32 20   100.07   -24 LegendNANA
13:00 -14.4 -18.2 73 30 22   99.99   -24 LegendNANA
14:00 -14.5 -18.0 75 30 28   99.93   -25 LegendNANA
15:00 -14.7 -18.2 75 30 23   99.92   -24 LegendNANA
16:00 -13.9 -16.8 79 30 27   99.85   -24 LegendNANA
17:00 -14.2 -16.9 80 28 19   99.81   -23 LegendNANA
18:00 -14.1 -17.5 76 30 31   99.70   -25 LegendNANA
19:00 -14.5 -17.7 77 32 29   99.72   -25 LegendNANA
20:00 -15.2 -18.1 79 32 30   99.73   -26 LegendNANA
21:00 -15.2 -17.8 81 32 31   99.70   -26 LegendNANA
22:00 -15.6 -18.4 79 32 34   99.71   -27 LegendNANA
23:00 -16.0 -19.2 76 32 30   99.69   -27 LegendNANA

Notes on Data Quality.

Legend

  • E = Estimated
  • M = Missing
  • NA = Not Available
  • ‡ = Partner data that is not subject to review by the National Climate Archives
Date modified: